Location: Fulham
(51.4744°N, 0.2152°W)
Time: 20:45:42
(UTC+00:00)

Daily predictions for brighter satellites

Satellite Brightness Start Highest point End
(mag) Time Altitude Azimuth Time Altitude Azimuth Time Altitude Azimuth
Nadezhda 4 Rocket 4.2 19:25:04 10° N 19:31:27 87° W 19:37:43 10° S
Cosmos 2034 Rocket 4.0 19:26:01 10° S 19:32:12 75° E 19:38:30 10° NNE
In-Cosmos 22 Rocket 4.4 19:30:53 10° NNW 19:36:45 86° W 19:42:35 10° S
SAR-Lupe-1 4.4 19:35:28 10° NNE 19:39:03 73° WNW 19:42:37 10° SSW
Cosmos 2237 Rocket 3.1 19:34:49 10° NNW 19:40:01 36° NE 19:45:11 10° ESE
Cosmos 1464 Rocket 4.4 19:33:46 10° SSW 19:40:04 74° WNW 19:46:20 10° N
Exosat Rocket 4.1 19:33:57 10° NNW 19:41:06 66° ENE 19:46:25 10° SE
BREEZE-M DEB (TANK) 4.1 19:37:38 10° WSW 19:42:30 43° SSE 19:47:12 10° E
SJ-6B 2.7 19:39:21 10° SSE 19:43:04 89° ENE 19:46:52 10° NNW
SL-8 R/B 4.2 19:39:27 10° W 19:44:08 50° SSW 19:48:48 10° ESE
Meteor 2-10 Rocket 3.6 19:38:56 10° S 19:44:08 67° E 19:49:36 10° NNE
BREEZE-M DEB (TANK) 4.1 19:41:43 10° SW 19:44:42 43° SSE 19:51:52 10° ENE
MOS 1 4.3 19:41:32 10° SSE 19:47:09 75° ENE 19:52:49 10° NNW
Cosmos 2026 Rocket 4.0 19:41:49 10° N 19:47:51 65° ENE 19:53:55 10° SSE
Cosmos 405 3.0 19:46:50 10° S 19:50:13 56° E 19:53:39 10° NNE
OBJECT-B 1.0 19:48:15 10° S 19:51:28 74° WSW 19:54:43 10° NNW
IRS-1A Rocket 4.3 19:46:27 10° SSE 19:52:02 82° ENE 19:57:46 10° NNW
Terra 3.9 19:51:41 10° ENE 19:53:37 12° NE 19:55:33 10° NNE
SL-27 R/B 4.4 19:50:48 10° SW 19:54:01 35° WNW 19:57:14 10° N
BREEZE-M DEB (TANK) 3.9 19:50:01 10° SW 19:54:07 70° SSE 20:09:32 10° ENE
CZ-4 R/B 4.4 19:51:53 10° SW 19:54:31 16° W 19:57:09 10° NW
Cosmos 1892 3.2 19:50:50 10° NNW 19:54:34 61° W 19:58:17 10° S
NOSS 3-4 (A) 3.4 19:49:15 10° SW 19:55:08 88° SE 20:01:36 10° NE
NOSS 3-4 (C) 3.4 19:49:21 10° SW 19:55:15 88° SE 20:01:42 10° NE
Cosmos 1627 Rocket 4.5 19:51:50 10° N 19:58:00 78° E 20:04:11 10° SSE
Cosmos 2098 Rocket 4.5 19:51:53 10° N 19:58:50 86° W 20:06:18 10° S
Cosmos 2227 Rocket 3.9 19:57:04 10° ESE 19:59:14 13° E 20:01:38 10° ENE
Cosmos 1606 Rocket 4.1 19:55:51 10° SSW 20:00:11 63° WNW 20:04:32 10° N
Cosmos 2251 Rocket 3.9 19:57:39 10° S 20:02:39 42° ESE 20:07:40 10° NE
SPOT 1/Viking Rocket 4.4 19:58:13 11° SE 20:02:46 35° ENE 20:07:30 10° N
Cosmos 389 Rocket 3.8 20:00:14 11° SE 20:02:56 22° E 20:05:45 10° NE
Cosmos 2333 Rocket 2.7 19:58:05 10° NW 20:03:46 61° WSW 20:09:23 10° SSE
Cosmos 2297 Rocket 3.5 20:02:35 10° SE 20:06:22 19° E 20:10:09 10° ENE
BREEZE-M DEB (TANK) 1.9 20:04:10 10° W 20:06:41 51° S 20:08:17 17° ESE
Cosmos 1825 2.1 20:03:33 10° N 20:07:21 87° E 20:11:08 10° S
Cosmos 1634 Rocket 4.0 20:01:22 10° S 20:07:34 67° E 20:13:45 10° NNE
ATLAS 2AS CENTAUR R/B 3.0 20:00:58 10° SSW 20:08:52 77° SE 20:16:36 10° NE
SPOT 3 Rocket 3.7 20:04:04 10° SSE 20:09:10 61° ENE 20:14:18 10° N
NOSS 7 (H) 4.0 20:06:26 10° SW 20:09:43 76° SE 20:12:38 10° NE
Cosmos 1726 Rocket 4.1 20:06:20 10° SSW 20:10:41 63° WNW 20:15:00 10° N
ARIANE 5 R/B 3.8 20:09:19 14° ESE 20:12:22 27° ENE 20:16:05 10° N
Ariane Rocket 3.3 20:09:37 10° S 20:14:40 70° WSW 20:19:44 10° NNW
Cosmos 1408 3.7 20:11:56 10° NNW 20:15:21 44° W 20:18:44 10° SSW
Orbus 7S? 3.4 20:16:40 10° SSW 20:19:31 50° SE 20:24:50 10° ENE
CZ-4C R/B 3.2 20:15:55 10° WSW 20:21:03 51° NNW 20:27:20 10° NE
RESURS DK-1 2.3 20:18:15 10° SSW 20:22:18 60° ESE 20:26:25 10° NE
Genesis I 4.2 20:18:51 10° NNW 20:22:36 38° NE 20:25:22 16° E
Landsat 7 3.9 20:20:37 13° SSE 20:24:48 64° ENE 20:29:33 10° N
USA 245 3.8 20:24:37 19° SE 20:26:57 37° ENE 20:30:01 10° N
Cosmos-2242 4.2 20:25:50 18° ESE 20:27:36 24° E 20:31:04 10° NE
NOSS 7 (E) 4.2 20:24:45 10° SW 20:28:24 71° SE 20:31:28 10° NE
Cosmos 2058 3.4 20:24:14 10° NNW 20:28:25 62° W 20:32:31 10° S
Meteor 2-1 Rocket 4.3 20:23:14 10° S 20:29:03 78° E 20:35:01 10° NNE
Cosmos 1655 Rocket 4.2 20:26:45 10° N 20:32:58 55° ENE 20:37:46 17° SSE
Cosmos 482 Debris 2.4 20:31:06 10° WSW 20:33:27 83° SSE 20:33:56 45° E
SL-16 R/B 3.2 20:28:49 10° NNW 20:34:02 35° NE 20:37:53 17° ESE
Cosmos 1980 3.7 20:29:50 10° NNW 20:35:34 79° ENE 20:39:45 19° SE
Cosmos 2058 Rocket 3.8 20:32:34 10° SSW 20:36:51 55° WNW 20:41:09 10° N
COSMOS 2487 3.8 20:33:56 10° SW 20:37:11 41° WNW 20:40:27 10° NNE
Cosmos 614 Rocket 4.0 20:32:15 10° S 20:37:17 57° ESE 20:42:17 10° NNE
BREEZE-M DEB (TANK) 3.9 20:33:59 10° WSW 20:38:18 74° SSE 20:54:47 10° E
Cosmos 2151 3.1 20:38:30 10° N 20:42:48 58° ENE 20:45:16 24° SSE
COSMOS 2428 3.7 20:38:47 10° NW 20:44:10 43° WSW 20:49:33 10° S
Meteor 2-3 Rocket 4.0 20:39:02 10° N 20:44:44 56° ENE 20:48:26 22° SE
IRIDIUM 104 4.3 20:40:18 10° S 20:45:30 76° E 20:50:44 10° N
Cosmos 1076 Rocket 3.6 20:42:14 10° NNW 20:46:36 76° W 20:50:07 15° S
Cosmos 2344 3.5 20:39:42 10° SSW 20:47:07 76° SE 20:55:11 10° NE
ATLAS 3B R/B 3.3 20:40:29 10° NW 20:47:15 53° WSW 20:53:12 15° SSE
FALCON 9 DEB 3.4 20:45:12 10° SW 20:48:28 44° SSE 20:49:45 29° E
Cosmos 192 4.4 20:44:01 10° NNW 20:49:00 77° WSW 20:52:27 20° SSE
USA 215 3.3 20:45:38 20° SE 20:50:22 71° SW 20:56:55 10° WNW
Cosmos 1812 Rocket 3.5 20:47:57 14° S 20:51:44 68° E 20:56:11 10° NNE
Resurs 01 Rocket 2.3 20:50:18 11° S 20:54:24 54° W 20:58:48 10° NNW
IRIDIUM 114 4.3 20:49:24 10° S 20:54:39 89° E 20:59:54 10° N
Cosmos 1818 3.5 20:49:31 10° SSW 20:54:57 77° SE 21:00:27 10° NE
Cosmos 1455 3.9 20:52:26 10° SW 20:55:51 33° WNW 20:59:16 10° N
Cosmos 2219 Rocket 3.8 20:52:11 10° NW 20:57:04 30° WSW 21:01:55 10° SSW
Cosmos 44 3.4 20:51:56 10° SW 20:57:07 88° SE 21:02:34 10° NE
ERS-1 Rocket 3.3 20:54:40 26° SE 20:57:14 49° ENE 21:02:05 10° N
Cosmos 407 Rocket 3.7 20:53:35 15° S 20:57:35 47° ESE 21:02:32 10° NE
Okean 3 Rocket 4.3 20:53:25 10° N 20:57:42 38° ENE 20:59:21 28° ESE
NOSS 0 Rocket 4.4 20:52:19 10° NW 20:58:24 57° WSW 21:03:07 17° S
Meteor 2-21 4.4 20:54:45 10° N 21:00:50 88° W 21:05:28 18° S
Cosmos 1766 Rocket 4.1 20:57:59 10° N 21:02:06 41° ENE 21:03:29 31° ESE
Cosmos 1633 2.5 20:58:58 10° NNW 21:02:35 82° W 21:04:10 32° S
IRIDIUM 103 4.4 20:58:35 10° S 21:03:48 78° W 21:09:03 10° N
CARTOSAT-1 3.5 21:04:22 32° SSE 21:06:17 69° ENE 21:10:35 10° N
IGS 5A 4.4 21:04:08 15° SSW 21:07:22 45° W 21:11:23 10° NNW
ATLAS 5 CENTAUR R/B 4.0 21:04:28 10° WNW 21:08:05 24° NNW 21:12:10 10° NE
Cosmos 405 Rocket 4.2 21:05:36 10° NNW 21:09:18 35° W 21:12:30 12° SSW
Meteor 1-4 Rocket 4.0 21:10:11 22° ENE 21:10:11 22° ENE 21:12:17 10° NE
Lacrosse 5 rocket 2.7 21:05:39 10° WNW 21:09:36 39° N 21:13:46 10° ENE
Cosmos 909 Rocket 4.0 21:07:07 10° SW 21:13:26 89° NW 21:20:03 10° NE
Cosmos 1023 Rocket 4.4 21:12:04 20° S 21:15:32 60° ESE 21:20:34 10° NNE
COSMOS 2455 3.7 21:18:15 27° ESE 21:18:21 27° ESE 21:23:18 10° NE
Cosmos 1869 3.8 21:18:39 38° E 21:18:51 39° E 21:22:33 10° NNE
SPOT 5 2.7 21:19:30 38° SE 21:21:13 72° ENE 21:26:00 10° NNW
Cosmos 1140 Rocket 3.4 21:18:31 21° S 21:21:58 65° ESE 21:27:04 10° NNE
Cosmos 2237 Rocket 2.7 21:18:51 10° NW 21:24:19 53° WSW 21:27:26 25° S
Spot 2 Rocket 3.6 21:21:43 27° S 21:24:31 71° WSW 21:29:37 10° NNW
CZ-2C R/B 4.0 21:20:28 10° N 21:24:54 66° WNW 21:28:54 12° SSW
SeaSat 1 4.3 21:23:07 10° ENE 21:24:38 15° E 21:24:38 15° E
Terra 1.9 21:28:59 41° SE 21:30:29 65° ENE 21:35:14 10° N
Cosmos 389 Rocket 4.3 21:34:17 10° SW 21:37:26 30° WNW 21:40:39 10° N
Cosmos 2082 4.1 21:39:13 38° ESE 21:39:39 38° ESE 21:44:49 10° NE
USA 229 DEB 4.4 21:34:17 10° NW 21:41:14 52° NNE 21:46:08 22° E
Cosmos 2263 Rocket 4.1 21:42:46 13° E 21:42:46 13° E 21:44:10 10° ENE
USA 229 4.4 21:34:22 10° NW 21:41:20 52° NNE 21:46:15 22° E
Cosmos 2227 Rocket 2.1 21:38:45 24° SSW 21:42:14 70° ESE 21:47:54 10° NNE
Cosmos 468 Rocket 4.1 21:37:12 10° NNW 21:42:17 60° ENE 21:43:44 43° ESE
Meteor 2-8 Rocket 4.4 21:42:18 33° S 21:45:13 74° E 21:51:21 10° NNE
ARIANE 5 R/B 3.6 21:46:52 28° SSW 21:48:40 42° W 21:52:52 10° NNW
Cosmos 1842 Rocket 4.3 21:49:34 37° E 21:49:34 37° E 21:53:28 10° NNE
Cosmos 2297 Rocket 2.1 21:44:00 10° SSW 21:49:40 87° WNW 21:55:23 10° NNE
Cosmos 841 Rocket 4.4 21:45:07 10° NNW 21:49:59 37° NE 21:51:30 31° E
Cosmos 1190 Rocket 3.9 21:47:50 23° SSW 21:51:12 86° WNW 21:56:27 10° NNE
Cosmos 2219 3.1 21:47:37 15° SSW 21:52:25 89° W 21:58:05 10° NNE
H-2A R/B 3.4 21:49:15 10° NNE 21:53:28 68° ESE 21:53:41 67° SE
NOSS 3-1 (A) 4.3 21:52:10 10° NW 21:59:08 58° NE 22:04:04 25° ESE
Genesis I 4.1 21:56:28 10° NW 22:00:11 37° WSW 22:00:14 37° SW
ATLAS 2AS CENTAUR R/B 4.0 21:52:56 10° W 22:00:29 46° NNW 22:07:46 10° NE
Cosmos 921 Rocket 4.2 21:57:16 10° N 22:01:17 31° ENE 22:01:48 30° ENE
Timation 2 Rocket 3.9 21:54:58 10° SSW 22:01:32 89° ESE 22:07:52 10° NNE
Cosmos 1763 Rocket 3.3 21:56:52 10° NNW 22:01:59 80° ENE 22:02:58 58° SE
Cosmos 1862 3.3 21:58:15 10° N 22:02:04 66° ENE 22:02:04 66° ENE
Nadezhda 2 Rocket 4.4 21:57:14 10° N 22:03:35 88° E 22:05:44 44° S
Cosmos-2242 4.1 22:02:37 22° SW 22:04:56 42° WNW 22:09:04 10° N
Cosmos 1408 Rocket 3.3 22:01:28 10° N 22:05:49 89° E 22:06:07 77° SSE
Cosmos 676 Rocket 3.8 22:07:09 48° SSW 22:08:37 83° ESE 22:13:50 10° NNE
CZ-4C R/B 4.3 22:05:55 10° WNW 22:11:01 29° N 22:17:01 10° NE
CRYOSAT 2 4.3 22:10:15 60° S 22:11:11 85° W 22:16:08 10° N
SL-16 R/B 2.6 22:12:52 10° NW 22:18:26 55° WSW 22:19:46 44° SSW
Sich 1 4.1 22:17:16 10° N 22:20:54 32° ENE 22:20:54 32° ENE
Cosmos 540 Rocket 3.5 22:16:16 10° NNW 22:21:24 67° ENE 22:22:04 59° ESE
Cosmos 1743 Rocket 3.5 22:17:03 10° N 22:21:17 71° ENE 22:21:17 71° ENE
Meteor 2-15 Rocket 4.3 22:22:07 51° S 22:23:47 82° E 22:29:54 10° NNE
NOSS 3-1 (C) 4.0 22:18:11 10° NW 22:25:28 89° SW 22:28:42 42° SE
SL-08 ROCKET BODY 4.3 22:20:18 10° N 22:26:27 88° E 22:27:52 56° SSE
Cosmos 1570 Rocket 4.4 22:23:18 10° NNW 22:28:31 53° ENE 22:29:21 48° E
Cosmos 2221 2.5 22:30:07 78° N 22:30:07 78° N 22:34:10 10° N
SL-08 R/B 4.4 22:23:58 10° N 22:30:10 88° W 22:31:43 54° S
Cosmos 1386 Rocket 4.4 22:27:24 10° N 22:33:30 71° ENE 22:34:38 57° SE
USA 215 4.4 22:32:58 24° SW 22:34:09 25° SW 22:39:25 10° WNW
Cosmos 44 Rocket 3.5 22:36:37 61° E 22:36:37 61° E 22:41:17 10° NE
ERS-1 Rocket 4.5 22:34:39 23° SW 22:36:16 28° W 22:40:34 10° NW
Aureole 1 Rocket 3.8 22:38:07 52° E 22:38:07 52° E 22:42:28 10° NE
Cosmos 1553 Rocket 3.8 22:39:11 58° S 22:40:29 85° E 22:46:37 10° N
Cosmos 1500 Rocket 3.6 22:36:29 10° NNW 22:40:50 74° WNW 22:40:50 74° WNW
Meteor 1-4 Rocket 4.2 22:44:18 28° WNW 22:44:19 28° WNW 22:47:25 10° N
Cosmos 1943 3.1 22:42:35 10° NNW 22:48:14 76° ENE 22:48:59 65° ESE
Cosmos 1741 Rocket 3.9 22:48:41 72° ESE 22:48:41 72° ESE 22:53:56 10° NNE
Lacrosse 5 rocket 2.0 22:45:07 10° WNW 22:49:22 54° NNE 22:49:47 51° NE
ALOS 2 3.2 22:49:56 47° NE 22:49:56 47° NE 22:53:53 10° N
Cosmos 1417 Rocket 4.4 22:49:46 59° S 22:51:07 87° E 22:57:25 10° N
Cosmos 1850 Rocket 3.8 22:54:08 82° ESE 22:54:11 82° ESE 22:59:27 10° NNE
ATLAS 5 CENTAUR R/B 4.2 22:50:23 10° NW 22:54:17 23° NNE 22:58:42 10° ENE
Cosmos 2208 Rocket 3.9 22:58:05 10° NNW 23:03:26 79° ENE 23:03:42 77° ESE
COSMOS 2455 3.0 23:01:18 37° SW 23:03:48 72° NW 23:09:52 10° NE
SeaSat 1 2.3 22:59:25 10° NNE 23:04:24 89° E 23:04:24 89° E
Cosmos 1606 3.9 23:09:02 41° N 23:09:02 41° N 23:11:38 10° N
Terra 3.7 23:07:51 19° WSW 23:08:41 20° W 23:12:08 10° NW
Cosmos 2315 Rocket 4.1 23:10:31 55° ESE 23:11:10 57° E 23:17:23 10° NNE
Iridium 4 Rocket 4.0 23:11:57 46° ENE 23:11:57 46° ENE 23:16:41 10° NNE
Cosmos 1151 Rocket 4.2 23:21:43 34° NE 23:21:43 34° NE 23:24:39 10° NNE
SL-24 DEB 4.4 23:21:37 67° NW 23:21:37 67° NW 23:25:50 10° N
Cosmos 2263 Rocket 2.0 23:24:25 77° ESE 23:24:25 77° ESE 23:29:54 10° NNE
Cosmos 2227 Rocket 3.9 23:21:52 10° WSW 23:26:48 30° NW 23:31:45 10° NNE
Cosmos 841 Rocket 4.3 23:27:03 10° NW 23:31:35 40° W 23:31:35 40° W
USA 229 DEB 3.9 23:25:21 10° NW 23:32:29 60° SW 23:33:33 55° SSW
USA 229 3.9 23:25:26 10° NW 23:32:35 61° SW 23:33:40 56° SSW
Cosmos 1603 4.0 23:27:01 10° NW 23:32:30 54° WSW 23:32:30 54° WSW
Meteor 2-17 Rocket 4.3 23:26:55 10° NNW 23:33:03 74° W 23:33:42 67° SW
Cosmos 2297 Rocket 4.3 23:30:02 10° W 23:34:33 24° NW 23:39:05 10° NNE
USA 281 3.5 23:33:03 43° ESE 23:35:06 61° NE 23:41:36 10° NNW
Cosmos 1844 Rocket 4.1 23:39:31 25° E 23:39:31 25° E 23:43:11 10° NE
Cosmos 921 Rocket 4.4 23:35:32 10° NW 23:38:35 31° WNW 23:38:35 31° WNW
Cosmos 2074 Rocket 4.2 23:36:10 10° N 23:42:22 58° ENE 23:43:22 52° ESE
Cosmos 1437 Rocket 4.1 23:43:52 36° NNW 23:43:52 36° NNW 23:46:20 10° N
Cosmos 1709 Rocket 4.1 23:39:56 10° NNW 23:46:04 60° W 23:46:44 57° WSW
Meteor 1-5 Rocket 4.4 23:41:06 10° N 23:46:50 58° ENE 23:47:20 56° E
NOSS 3-1 (A) 4.2 23:43:05 10° NW 23:50:19 55° SW 23:51:29 51° SSW
